Wind_Speed
16 17 17 17 17 17 17 17 17 18 19 19 19 18 19 20 20 20 20 20 20 20 20 21 22 22 23 24 24 25 25 26 27 27 27 28 27 27
17 17 17 17 18 18 18 18 18 18 19 20 20 20 20 20 21 21 21 21 22 22 22 22 22 23 24 25 24 25 26 26 27 27 28 29 29 29
18 18 18 19 19 19 19 20 20 20 20 20 20 21 21 21 21 21 22 23 24 24 24 24 24 24 24 25 25 26 26 26 27 27 28 29 29 29
18 19 20 20 20 20 20 20 21 20 20 21 22 22 22 22 22 23 22 23 24 25 25 24 24 24 24 24 25 25 26 26 27 27 28 28 29 29
19 19 20 20 20 21 21 21 20 21 21 21 22 22 23 23 22 22 22 23 23 23 24 24 24 24 24 25 25 25 26 26 26 27 27 28 28 29
20 20 20 20 20 20 21 20 20 21 21 21 22 22 23 23 22 22 23 24 23 23 24 24 25 25 25 26 26 25 25 25 26 26 27 27 28 29
20 20 20 19 19 19 20 20 20 20 21 21 22 23 23 23 23 23 23 24 24 23 23 24 24 25 25 25 25 25 25 26 26 26 27 28 28 29
20 20 20 20 20 20 20 21 21 21 21 22 22 23 22 23 23 23 23 23 23 24 24 24 25 25 25 25 25 26 26 26 27 27 28 28 29 29
21 21 20 20 20 20 21 21 21 22 22 22 23 22 22 22 22 23 24 24 24 25 25 25 26 26 26 26 26 26 27 28 28 28 29 29 30 31
23 22 22 21 21 21 20 21 21 21 22 22 23 23 23 23 23 24 25 25 25 25 25 26 26 26 27 27 27 27 27 28 29 29 30 31 31 31
23 23 23 22 22 21 21 21 22 22 22 23 23 23 24 24 24 25 25 25 25 25 26 26 26 26 27 28 28 28 28 28 28 29 30 31 32 32
23 24 24 23 22 22 22 22 22 22 23 23 24 24 24 25 25 26 27 26 26 25 26 27 27 27 27 27 28 28 28 28 28 29 30 31 31 32
23 23 23 23 22 23 23 23 23 23 23 24 24 25 25 25 26 26 26 26 26 26 26 27 27 27 27 27 27 27 27 27 27 28 28 29 30 31
23 23 23 23 23 24 24 24 24 24 23 24 24 24 25 26 26 25 26 26 27 27 26 26 26 27 28 27 27 27 27 27 27 27 27 27 28 28
24 23 23 23 23 23 24 24 24 24 24 24 25 25 25 25 25 25 25 25 26 26 26 27 26 26 26 26 26 26 26 26 26 26 25 26 26 26
25 24 24 24 24 24 24 24 24 24 25 26 26 26 25 25 25 25 24 24 24 24 25 25 25 25 25 25 25 24 25 25 25 25 24 24 24 24
25 25 25 24 24 24 25 25 25 25 25 26 26 26 25 24 24 24 24 23 23 23 24 24 24 24 24 23 23 23 23 23 24 24 23 23 23 23
25 24 24 24 24 25 25 25 25 25 25 26 25 25 24 24 23 23 23 23 24 24 24 24 23 22 22 21 22 22 22 22 22 23 23 23 22 23
25 25 25 24 24 25 24 24 24 24 25 25 25 24 24 23 22 22 22 23 22 23 23 22 22 22 21 20 21 21 21 21 21 21 22 22 21 21
25 25 25 25 24 24 24 23 23 23 24 23 23 23 22 22 22 21 22 22 22 21 20 21 21 21 20 20 19 20 20 20 20 20 20 21 20 19
25 25 25 25 25 24 23 23 23 24 24 23 23 22 22 21 21 22 22 22 22 21 21 21 21 20 19 18 18 19 19 19 19 19 19 19 19 18
26 26 26 26 25 25 25 24 24 24 24 24 23 23 22 22 21 22 22 23 23 22 22 21 20 19 18 18 19 19 19 19 19 19 19 19 18 18
26 27 27 26 26 26 25 25 25 25 25 24 24 23 23 23 23 23 23 23 23 22 22 21 20 20 19 20 19 19 19 19 19 18 18 18 17 18
Wind_Direction
290 287 284 283 283 281 279 276 274 272 271 270 269 268 266 266 266 266 266 266 266 266 269 268 268 268 268 269 269 268 269 267 266 265 265 266 266 266
291 289 286 284 283 281 279 276 274 273 272 271 269 270 270 269 267 268 267 268 269 269 270 272 273 271 268 268 269 270 269 269 268 268 266 266 267 267
290 288 287 285 284 281 277 275 274 272 271 269 268 268 269 270 269 271 270 270 271 271 272 274 273 272 272 269 269 269 269 269 269 268 269 268 267 268
291 289 287 286 283 280 278 276 274 272 270 269 268 269 270 271 270 271 272 272 272 273 272 273 274 274 273 272 273 271 269 269 269 270 270 270 268 267
293 290 288 286 283 279 277 275 273 273 272 270 271 271 273 273 272 271 274 274 275 275 274 273 274 276 276 275 275 274 271 271 272 272 272 270 268 268
292 291 290 288 285 282 279 276 274 273 273 272 272 273 274 273 273 275 275 274 274 275 275 275 277 277 276 276 275 275 273 272 272 271 272 271 269 268
292 292 292 289 286 283 280 278 276 276 275 275 274 274 274 273 274 276 276 275 275 276 278 278 280 279 277 277 277 275 275 274 274 273 272 272 271 270
292 292 292 290 288 285 282 280 279 278 277 275 275 274 273 273 274 276 276 276 276 276 277 278 280 280 279 279 278 275 275 274 274 273 273 273 273 273
291 291 292 292 290 287 284 281 280 279 277 275 274 273 271 271 273 275 276 276 278 278 278 279 278 278 278 279 279 276 275 274 274 274 274 274 273 273
290 289 290 291 289 285 283 281 280 280 279 278 276 274 273 271 273 275 277 278 277 278 278 279 278 277 277 277 278 277 277 276 275 275 276 276 276 275
289 289 290 290 288 285 282 282 280 279 278 277 277 276 276 275 275 276 277 279 279 279 279 279 279 278 277 276 276 277 278 278 278 278 278 278 277 276
289 290 289 287 285 284 284 282 281 281 281 278 276 276 277 277 276 276 277 279 281 281 281 280 279 279 277 277 277 279 278 277 277 278 279 279 278 277
289 290 289 287 284 283 283 283 282 283 282 280 277 276 277 277 277 277 277 280 282 283 284 282 281 281 278 278 278 279 280 280 279 280 281 281 280 278
289 290 289 287 285 284 283 282 283 283 284 283 281 280 279 278 277 277 277 280 282 283 284 285 284 283 280 279 279 279 279 281 281 280 281 282 283 283
287 289 288 287 285 284 283 283 283 283 283 283 283 282 282 280 278 278 279 280 283 284 284 286 286 285 283 281 280 280 280 281 281 281 282 283 285 284
287 288 287 286 285 284 284 284 284 284 283 283 284 283 282 282 279 278 280 281 284 285 285 287 289 289 287 283 281 280 281 281 281 281 283 283 284 283
287 287 286 286 286 285 284 285 285 285 286 286 284 283 281 282 280 279 279 281 284 286 287 290 291 290 289 284 281 281 281 280 280 281 282 283 282 281
287 287 287 287 287 287 287 287 286 286 287 288 286 283 281 281 280 281 281 283 285 287 288 290 292 291 288 283 282 284 283 282 280 280 282 283 283 281
286 286 287 287 287 287 288 288 288 287 289 289 287 285 281 279 279 281 283 284 285 287 288 290 292 293 290 286 284 283 282 282 282 282 283 284 284 283
284 285 287 287 287 287 288 287 286 287 289 289 288 286 284 281 280 280 281 283 285 286 286 289 292 292 291 290 287 285 283 284 283 283 284 284 281 280
284 285 286 287 285 285 286 286 285 286 287 287 287 287 287 285 282 280 280 282 285 285 285 289 293 293 292 291 289 287 286 285 286 287 285 284 280 277
284 283 284 285 285 284 285 286 286 285 285 284 285 285 285 284 284 283 281 282 282 284 286 290 292 292 291 290 291 290 289 287 286 286 286 284 281 278
284 282 283 284 285 285 284 285 285 284 283 281 281 282 283 284 283 284 282 280 281 282 284 287 290 290 288 289 289 288 287 286 286 287 287 285 282 279
Height
5823 5822 5820 5819 5818 5817 5817 5816 5816 5815 5815 5814 5814 5813 5813 5813 5813 5813 5812 5812 5812 5812 5812 5811 5811 5810 5810 5810 5809 5809 5809 5809 5808 5808 5808 5808 5808 5808
5818 5817 5816 5815 5814 5813 5812 5811 5811 5810 5809 5809 5809 5808 5808 5807 5807 5807 5807 5806 5806 5806 5805 5805 5805 5804 5803 5803 5802 5802 5802 5802 5801 5801 5801 5801 5801 5801
5814 5812 5811 5810 5809 5808 5807 5806 5805 5804 5804 5804 5803 5803 5802 5802 5801 5801 5801 5800 5800 5800 5799 5798 5798 5797 5796 5796 5795 5795 5795 5794 5794 5794 5793 5793 5793 5793
5809 5807 5806 5805 5803 5802 5801 5800 5800 5799 5798 5798 5797 5797 5797 5796 5796 5795 5794 5794 5793 5793 5792 5791 5791 5790 5790 5789 5789 5788 5788 5787 5787 5786 5786 5785 5785 5784
5804 5802 5800 5799 5797 5796 5795 5794 5794 5793 5793 5792 5792 5791 5791 5790 5790 5789 5788 5788 5787 5786 5786 5785 5784 5784 5783 5782 5782 5781 5780 5780 5779 5778 5777 5777 5777 5776
5799 5797 5795 5793 5791 5790 5789 5788 5788 5788 5787 5786 5786 5785 5785 5784 5783 5783 5782 5781 5781 5780 5779 5778 5777 5777 5776 5775 5774 5774 5773 5772 5771 5770 5770 5769 5768 5768
5793 5791 5789 5787 5785 5784 5783 5783 5782 5782 5781 5781 5780 5779 5779 5778 5777 5776 5775 5775 5774 5773 5772 5771 5770 5769 5768 5767 5767 5766 5765 5764 5764 5763 5762 5761 5760 5760
5788 5786 5784 5782 5780 5779 5778 5777 5777 5776 5775 5775 5774 5773 5772 5772 5771 5770 5769 5768 5767 5767 5765 5764 5763 5762 5761 5760 5759 5758 5757 5756 5755 5754 5753 5752 5752 5751
5782 5780 5778 5776 5775 5773 5772 5772 5771 5770 5769 5768 5767 5766 5766 5765 5764 5763 5762 5761 5760 5759 5758 5757 5756 5754 5753 5752 5751 5750 5749 5748 5747 5746 5745 5744 5743 5742
5776 5774 5772 5770 5769 5768 5767 5766 5765 5764 5763 5762 5761 5760 5759 5758 5757 5756 5755 5754 5753 5752 5750 5749 5748 5747 5746 5744 5743 5742 5740 5739 5738 5737 5736 5735 5733 5732
5769 5768 5766 5764 5763 5762 5760 5759 5758 5757 5756 5755 5754 5753 5752 5751 5750 5749 5747 5746 5745 5744 5742 5741 5740 5738 5737 5736 5734 5733 5732 5730 5729 5728 5727 5725 5724 5722
5763 5761 5759 5758 5756 5755 5754 5753 5752 5750 5749 5748 5747 5746 5744 5743 5742 5741 5740 5738 5737 5736 5735 5733 5732 5730 5729 5727 5725 5724 5723 5721 5720 5719 5717 5716 5714 5712
5756 5754 5753 5751 5750 5748 5747 5746 5744 5743 5742 5740 5739 5738 5737 5735 5734 5733 5732 5730 5729 5728 5726 5725 5723 5721 5720 5719 5717 5715 5713 5712 5711 5709 5708 5706 5704 5702
5750 5748 5746 5745 5743 5741 5740 5739 5737 5736 5734 5733 5731 5730 5728 5727 5726 5725 5724 5723 5721 5720 5718 5716 5714 5712 5711 5709 5708 5706 5705 5703 5702 5700 5699 5697 5695 5693
5743 5741 5740 5738 5736 5735 5733 5731 5730 5728 5727 5725 5724 5722 5721 5719 5718 5717 5716 5715 5714 5712 5710 5708 5706 5704 5702 5700 5699 5697 5696 5695 5693 5692 5690 5689 5687 5685
5736 5735 5733 5731 5729 5728 5726 5724 5723 5721 5719 5718 5716 5714 5713 5711 5710 5709 5709 5707 5706 5704 5702 5700 5698 5696 5694 5692 5690 5689 5687 5686 5685 5684 5682 5681 5679 5677
5729 5727 5726 5724 5722 5721 5719 5717 5715 5714 5712 5710 5708 5706 5705 5703 5703 5702 5701 5700 5699 5697 5695 5693 5691 5688 5686 5684 5682 5681 5679 5678 5677 5676 5675 5674 5672 5671
5721 5720 5718 5717 5715 5713 5711 5710 5708 5706 5704 5702 5700 5698 5697 5696 5695 5695 5694 5693 5692 5690 5688 5686 5684 5682 5679 5677 5676 5674 5672 5671 5670 5669 5668 5667 5666 5664
5714 5713 5711 5709 5708 5706 5704 5702 5701 5699 5697 5695 5693 5691 5690 5689 5688 5688 5687 5686 5684 5683 5681 5679 5677 5675 5673 5671 5669 5667 5666 5665 5663 5662 5661 5660 5659 5658
5706 5705 5703 5702 5700 5699 5697 5695 5694 5692 5691 5689 5687 5685 5684 5682 5681 5681 5680 5679 5678 5676 5675 5673 5671 5669 5667 5665 5664 5662 5660 5659 5657 5656 5655 5654 5653 5652
5698 5697 5696 5694 5693 5691 5690 5688 5687 5685 5684 5682 5681 5679 5678 5676 5675 5674 5673 5673 5671 5670 5669 5667 5665 5663 5661 5660 5658 5657 5655 5653 5652 5651 5649 5648 5647 5646
5690 5689 5688 5686 5685 5684 5682 5681 5680 5678 5677 5675 5674 5673 5672 5670 5669 5668 5667 5666 5665 5664 5663 5661 5659 5658 5656 5655 5653 5651 5650 5648 5647 5645 5644 5643 5642 5641
5682 5680 5679 5678 5677 5676 5675 5673 5672 5670 5669 5668 5667 5666 5665 5664 5663 5661 5660 5659 5659 5658 5656 5655 5654 5652 5651 5649 5648 5646 5645 5643 5642 5641 5640 5638 5637 5636